When you browse on this site, cookies collect data to enhance your experience and personalize the content and advertising you see.
Visit our Privacy Policy to learn more. By continuing to use the site, you agree to this use of cookies and data.
  • In Portugal
  • List of Countries
  • For 7 days
  • Water Temperature
  • Weather Map
  • Weather Widgets
  • user-avatar
    Login

    Hourly Weather Konstantyna

    Today, 19 November, Tuesday

    Time Temperature Precipitation Wind Pressure Humidity
    00:00 +7°C° 0 mm 2 mps 706 mmHg 76%
    01:00 +7°C° 0 mm 2 mps 706 mmHg 77%
    02:00 +7°C° 0 mm 2 mps 706 mmHg 79%
    03:00 +7°C° 0 mm 2 mps 706 mmHg 80%
    04:00 +7°C° 0.3 mm 2 mps 706 mmHg 82%
    05:00 +6°C° 0.3 mm 2 mps 706 mmHg 85%
    06:00 +6°C° 0.3 mm 2 mps 707 mmHg 87%
    07:00 +7°C° 0.3 mm 2 mps 707 mmHg 84%
    08:00 +8°C° 0.3 mm 2 mps 708 mmHg 81%
    09:00 +9°C° 0.3 mm 2 mps 709 mmHg 78%
    10:00 +9°C° 0.2 mm 2 mps 708 mmHg 77%
    11:00 +9°C° 0.2 mm 2 mps 708 mmHg 77%
    12:00 +9°C° 0.2 mm 2 mps 708 mmHg 76%
    13:00 +9°C° 0.2 mm 2 mps 708 mmHg 76%
    14:00 +9°C° 0.2 mm 2 mps 708 mmHg 76%
    15:00 +10°C° 0.2 mm 1 mps 708 mmHg 76%
    16:00 +10°C° 0.1 mm 1 mps 709 mmHg 80%
    17:00 +9°C° 0.1 mm 1 mps 709 mmHg 83%
    18:00 +8°C° 0.1 mm 1 mps 709 mmHg 86%
    19:00 +8°C° 0 mm 1 mps 709 mmHg 87%
    20:00 +8°C° 0 mm 1 mps 709 mmHg 88%
    21:00 +7°C° 0 mm 1 mps 709 mmHg 90%
    22:00 +7°C° 0 mm 1 mps 709 mmHg 89%
    23:00 +7°C° 0 mm 1 mps 709 mmHg 89%

    Tomorrow, 20 November, Wednesday

    Time Temperature Precipitation Wind Pressure Humidity
    00:00 +7°C° 0 mm 1 mps 709 mmHg 88%
    01:00 +7°C° 0 mm 1 mps 709 mmHg 88%
    02:00 +6°C° 0 mm 1 mps 709 mmHg 88%
    03:00 +6°C° 0 mm 1 mps 708 mmHg 88%
    04:00 +6°C° 0 mm 1 mps 708 mmHg 88%
    05:00 +6°C° 0 mm 1 mps 708 mmHg 87%
    06:00 +6°C° 0 mm 1 mps 708 mmHg 87%
    07:00 +8°C° 0 mm 1 mps 709 mmHg 80%
    08:00 +8°C° 0 mm 2 mps 709 mmHg 73%
    09:00 +10°C° 0 mm 2 mps 710 mmHg 66%
    10:00 +12°C° 0 mm 2 mps 709 mmHg 59%
    11:00 +12°C° 0 mm 3 mps 709 mmHg 52%
    12:00 +13°C° 0 mm 4 mps 709 mmHg 45%
    13:00 +13°C° 0 mm 3 mps 708 mmHg 45%
    14:00 +13°C° 0 mm 3 mps 708 mmHg 45%
    15:00 +13°C° 0 mm 3 mps 708 mmHg 45%
    16:00 +12°C° 0 mm 3 mps 708 mmHg 50%
    17:00 +12°C° 0 mm 2 mps 708 mmHg 55%
    18:00 +9°C° 0 mm 2 mps 708 mmHg 59%
    19:00 +9°C° 0 mm 2 mps 708 mmHg 60%
    20:00 +9°C° 0 mm 2 mps 708 mmHg 61%
    21:00 +9°C° 0 mm 2 mps 708 mmHg 62%
    22:00 +9°C° 0 mm 2 mps 708 mmHg 62%
    23:00 +9°C° 0 mm 2 mps 708 mmHg 63%

    Day after tomorrow, 21 November, Thursday

    Time Temperature Precipitation Wind Pressure Humidity
    00:00 +9°C° 0 mm 2 mps 707 mmHg 63%
    01:00 +8°C° 0 mm 2 mps 707 mmHg 62%
    02:00 +8°C° 0 mm 2 mps 707 mmHg 61%
    03:00 +8°C° 0 mm 2 mps 707 mmHg 61%
    04:00 +8°C° 0 mm 2 mps 707 mmHg 61%
    05:00 +8°C° 0 mm 2 mps 707 mmHg 62%
    06:00 +7°C° 0 mm 2 mps 707 mmHg 62%
    07:00 +9°C° 0 mm 2 mps 707 mmHg 58%
    08:00 +10°C° 0 mm 2 mps 708 mmHg 53%
    09:00 +13°C° 0 mm 2 mps 708 mmHg 49%
    10:00 +13°C° 0 mm 3 mps 708 mmHg 47%
    11:00 +14°C° 0 mm 3 mps 708 mmHg 45%
    12:00 +15°C° 0 mm 4 mps 708 mmHg 44%
    13:00 +15°C° 0 mm 4 mps 708 mmHg 46%
    14:00 +15°C° 0 mm 4 mps 708 mmHg 48%
    15:00 +15°C° 0 mm 4 mps 708 mmHg 49%
    16:00 +13°C° 0 mm 3 mps 708 mmHg 55%
    17:00 +13°C° 0 mm 2 mps 708 mmHg 60%
    18:00 +11°C° 0 mm 1 mps 708 mmHg 65%
    19:00 +10°C° 0 mm 2 mps 708 mmHg 65%
    20:00 +10°C° 0 mm 2 mps 708 mmHg 65%
    21:00 +9°C° 0 mm 2 mps 709 mmHg 65%
    22:00 +9°C° 0 mm 2 mps 708 mmHg 65%
    23:00 +9°C° 0 mm 2 mps 708 mmHg 65%

    22 November, Friday

    Time Temperature Precipitation Wind Pressure Humidity
    00:00 +9°C° 0 mm 2 mps 708 mmHg 65%
    01:00 +9°C° 0 mm 2 mps 708 mmHg 65%
    02:00 +10°C° 0 mm 2 mps 708 mmHg 64%
    03:00 +11°C° 0 mm 1 mps 708 mmHg 64%
    04:00 +10°C° 0 mm 2 mps 708 mmHg 64%
    05:00 +10°C° 0 mm 2 mps 708 mmHg 64%
    06:00 +9°C° 0 mm 2 mps 708 mmHg 64%
    07:00 +12°C° 0 mm 2 mps 708 mmHg 62%
    08:00 +12°C° 0 mm 3 mps 709 mmHg 60%
    09:00 +13°C° 0 mm 3 mps 709 mmHg 59%
    10:00 +14°C° 0 mm 4 mps 709 mmHg 55%
    11:00 +15°C° 0 mm 5 mps 708 mmHg 51%
    12:00 +16°C° 0 mm 5 mps 708 mmHg 47%
    13:00 +16°C° 0 mm 5 mps 708 mmHg 47%
    14:00 +16°C° 0 mm 5 mps 708 mmHg 47%
    15:00 +16°C° 0 mm 5 mps 707 mmHg 47%
    16:00 +14°C° 0 mm 4 mps 707 mmHg 50%
    17:00 +13°C° 0 mm 3 mps 707 mmHg 52%
    18:00 +13°C° 0 mm 2 mps 707 mmHg 55%
    19:00 +12°C° 0 mm 2 mps 707 mmHg 55%
    20:00 +12°C° 0 mm 2 mps 707 mmHg 55%
    21:00 +12°C° 0 mm 2 mps 707 mmHg 55%
    22:00 +12°C° 0 mm 2 mps 707 mmHg 55%
    23:00 +10°C° 0 mm 2 mps 707 mmHg 54%

    23 November, Saturday

    Time Temperature Precipitation Wind Pressure Humidity
    00:00 +10°C° 0 mm 3 mps 706 mmHg 54%
    01:00 +11°C° 0 mm 3 mps 706 mmHg 51%
    02:00 +11°C° 0 mm 3 mps 706 mmHg 49%
    03:00 +11°C° 0 mm 3 mps 706 mmHg 47%
    04:00 +11°C° 0 mm 3 mps 706 mmHg 50%
    05:00 +11°C° 0 mm 3 mps 706 mmHg 53%
    06:00 +12°C° 0 mm 2 mps 706 mmHg 57%
    07:00 +12°C° 0 mm 3 mps 706 mmHg 56%
    08:00 +13°C° 0 mm 4 mps 707 mmHg 55%
    09:00 +14°C° 0 mm 4 mps 707 mmHg 55%
    10:00 +15°C° 0 mm 5 mps 707 mmHg 56%
    11:00 +15°C° 0 mm 6 mps 706 mmHg 58%
    12:00 +16°C° 0 mm 7 mps 706 mmHg 59%
    13:00 +16°C° 0.1 mm 6 mps 705 mmHg 63%
    14:00 +15°C° 0.1 mm 6 mps 705 mmHg 66%
    15:00 +14°C° 0.1 mm 5 mps 704 mmHg 70%
    16:00 +14°C° 0.2 mm 5 mps 704 mmHg 73%
    17:00 +13°C° 0.2 mm 5 mps 705 mmHg 76%
    18:00 +13°C° 0.2 mm 4 mps 705 mmHg 79%
    19:00 +13°C° 0.6 mm 4 mps 705 mmHg 82%
    20:00 +12°C° 0.6 mm 4 mps 705 mmHg 84%
    21:00 +12°C° 0.6 mm 4 mps 706 mmHg 87%
    22:00 +12°C° 0.2 mm 4 mps 706 mmHg 85%
    23:00 +10°C° 0.2 mm 5 mps 706 mmHg 84%

    24 November, Sunday

    Time Temperature Precipitation Wind Pressure Humidity
    00:00 +10°C° 0.2 mm 5 mps 707 mmHg 82%
    01:00 +10°C° 0.1 mm 4 mps 707 mmHg 83%
    02:00 +8°C° 0.1 mm 4 mps 706 mmHg 83%
    03:00 +7°C° 0.1 mm 4 mps 706 mmHg 84%
    04:00 +7°C° 0 mm 4 mps 707 mmHg 85%
    05:00 +7°C° 0 mm 4 mps 707 mmHg 85%
    06:00 +7°C° 0 mm 4 mps 707 mmHg 86%
    07:00 +8°C° 0.1 mm 5 mps 708 mmHg 81%
    08:00 +9°C° 0.1 mm 6 mps 709 mmHg 75%
    09:00 +10°C° 0.1 mm 7 mps 709 mmHg 69%
    10:00 +10°C° 0.1 mm 7 mps 710 mmHg 69%
    11:00 +10°C° 0.1 mm 7 mps 710 mmHg 68%
    12:00 +11°C° 0.1 mm 8 mps 710 mmHg 67%
    13:00 +11°C° 0 mm 7 mps 710 mmHg 67%
    14:00 +10°C° 0 mm 6 mps 710 mmHg 68%
    15:00 +10°C° 0 mm 5 mps 710 mmHg 68%
    16:00 +10°C° 0 mm 4 mps 710 mmHg 72%
    17:00 +9°C° 0 mm 3 mps 710 mmHg 76%
    18:00 +8°C° 0 mm 2 mps 710 mmHg 81%
    19:00 +8°C° 0 mm 2 mps 710 mmHg 82%
    20:00 +8°C° 0 mm 2 mps 711 mmHg 84%
    21:00 +8°C° 0 mm 1 mps 711 mmHg 85%
    22:00 +8°C° 0 mm 1 mps 711 mmHg 85%
    23:00 +8°C° 0 mm 1 mps 711 mmHg 86%
    Show more